This is the latest recevied weather packets stored in our database for station/object W5ALL-WX. If no packets are shown the sender has not sent any weather packets the latest 10 day(s).
| Time | Temp. | Humidity | Pressure | Rain* | Wind** | Luminosity | Snow |
|---|---|---|---|---|---|---|---|
| 1778110329 | 23.33° C | 11% | 1013.3 hPa | 0 mm | - | - | - |
| 1778110029 | 23.33° C | 11% | 1013.3 hPa | 0 mm | - | - | - |
| 1778109729 | 23.33° C | 11% | 1013.2 hPa | 0 mm | - | - | - |
| 1778109429 | 23.33° C | 11% | 1013.2 hPa | 0 mm | - | - | - |
| 1778109129 | 23.89° C | 11% | 1013.3 hPa | 0 mm | - | - | - |
| 1778108829 | 24.44° C | 11% | 1013.2 hPa | 0 mm | - | - | - |
| 1778108529 | 24.44° C | 11% | 1013.3 hPa | 0 mm | - | - | - |
| 1778108229 | 24.44° C | 11% | 1013.3 hPa | 0 mm | - | - | - |
| 1778107929 | 24.44° C | 12% | 1013.3 hPa | 0 mm | - | - | - |
| 1778107629 | 23.89° C | 12% | 1013.4 hPa | 0 mm | - | - | - |
| 1778107329 | 23.89° C | 12% | 1013.3 hPa | 0 mm | - | - | - |
| 1778107029 | 23.89° C | 11% | 1013.3 hPa | 0 mm | - | - | - |
| 1778106729 | 23.89° C | 12% | 1013.3 hPa | 0 mm | - | - | - |
| 1778106429 | 23.89° C | 12% | 1013.3 hPa | 0 mm | - | - | - |
| 1778106129 | 23.33° C | 12% | 1013.3 hPa | 0 mm | - | - | - |
| 1778105829 | 23.33° C | 12% | 1013.4 hPa | 0 mm | - | - | - |
| 1778105529 | 23.33° C | 13% | 1013.5 hPa | 0 mm | - | - | - |
| 1778105229 | 23.33° C | 13% | 1013.5 hPa | 0 mm | - | - | - |
| 1778104929 | 23.33° C | 13% | 1013.5 hPa | 0 mm | - | - | - |
| 1778104629 | 23.33° C | 12% | 1013.5 hPa | 0 mm | - | - | - |
| 1778104329 | 23.33° C | 12% | 1013.5 hPa | 0 mm | - | - | - |
| 1778104029 | 23.33° C | 14% | 1013.5 hPa | 0 mm | - | - | - |
| 1778103729 | 22.78° C | 13% | 1013.6 hPa | 0 mm | - | - | - |
| 1778103429 | 22.78° C | 13% | 1013.6 hPa | 0 mm | - | - | - |
| 1778103129 | 22.78° C | 12% | 1013.8 hPa | 0 mm | - | - | - |
* Rain latest hour (hover to see other rain measurements)
** Current wind speed in m/s (hover to see current wind gust speed)